Regional Weather Roundup
Issued by NWS Upton, NY

Current Version | Previous Version | Text Only | Print | Product List | Glossary On
Versions: 1 2 3 4 5 6 7 8 9 10 11 12 13 14 15 16 17 18 19 20 21 22 23 24 25 26 27 28 29 30 31 32 33 34 35 36 37 38 39 40 41 42 43 44 45 46 47 48 49 50
000
ASUS41 KOKX 291918
RWROKX

REGIONAL WEATHER ROUNDUP
NATIONAL WEATHER SERVICE NEW YORK NY
300 PM EDT FRI MAY 29 2015

NOTE: "FAIR" INDICATES FEW OR NO CLOUDS BELOW 12,000 FEET WITH NO
SIGNIFICANT WEATHER AND/OR OBSTRUCTIONS TO VISIBILITY.

NYZ071-072-176-178-NJZ106-104-292000-
NEW YORK CITY METRO AREA


CITY           SKY/WX    TMP DP  RH WIND       PRES   REMARKS
CENTRAL PARK   SUNNY     81  55  40 VRB3      30.29R
LAGUARDIA APRT MOSUNNY   80  54  40 S12       30.26R
KENNEDY INTL   MOSUNNY   77  54  44 S9        30.29R
NEWARK/LIBERTY PTSUNNY   81  55  40 SE7       30.26S
BRNX BOT. GARD   N/A     81  57  44 SE6       30.28S
TETERBORO      SUNNY     82  54  37 S8G18     30.24S
$$

NYZ177-179-078>081-292000-
LONG ISLAND NEW YORK

CITY           SKY/WX    TMP DP  RH WIND       PRES   REMARKS
FARMINGDALE    SUNNY     76  57  51 S9        30.28R
ISLIP          MOSUNNY   77  57  50 SE10      30.25F
SHIRLEY        SUNNY     76  56  49 SE9       30.28S
WESTHAMPTON    SUNNY     74  55  51 SE8       30.28F
MONTAUK POINT    N/A     75  58  55 SE6       30.29S
$$

NYZ052-065-067-292000-
HUDSON VALLEY

CITY           SKY/WX    TMP DP  RH WIND       PRES   REMARKS
WHITE PLAINS   SUNNY     80  53  39 CALM      30.26F
NEWBURGH       SUNNY     79  55  44 VRB6      30.27F
MONTGOMERY     SUNNY     80  57  45 CALM      30.25F
POUGHKEEPSIE   SUNNY     82  56  40 W8        30.24F
ALBANY         PTSUNNY   82  52  35 CALM      30.24F
$$

NJZ001-105-106-008-010-013-015-019>022-104-292000-
NEW JERSEY

CITY           SKY/WX    TMP DP  RH WIND       PRES   REMARKS
NEWARK/LIBERTY PTSUNNY   81  55  40 SE7       30.26S
TETERBORO      SUNNY     82  54  37 S8G18     30.24S
CALDWELL       SUNNY     84  52  33 VRB3      30.25F
MORRISTOWN     MOSUNNY   84  55  37 W5        30.26S
SOMERVILLE     SUNNY     85  54  34 VRB5      30.23F
SUSSEX         SUNNY     83  55  38 SW8       30.27S
ANDOVER          N/A     83  55  38 W6        30.26F
TRENTON        SUNNY     85  57  38 S7        30.24F
MILLVILLE      MOSUNNY   84  63  49 SE8       30.24F
ATLANTIC CITY  SUNNY     77  58  51 E12       30.27S
WRIGHTSTOWN    SUNNY     86  59  39 VRB3      30.21F
TOMS RIVER     SUNNY    N/A N/A N/A E8        30.27F
BELMAR         SUNNY     75  55  50 SE10      30.28S
$$

PAZ047>061-062-071-292000-
EASTERN PENNSYLVANIA

CITY           SKY/WX    TMP DP  RH WIND       PRES   REMARKS
PHILADELPHIA   MOSUNNY   86  61  42 VRB3      30.24F
ALLENTOWN      SUNNY     88  55  32 SW8       30.24F
SCRANTON       MOSUNNY   83  53  35 SW5       30.24F
$$

CTZ002-004>006-009-010-012-RIZ004-006-007-MAZ004-011-015-292000-
SOUTHERN NEW ENGLAND
 IN CT

CITY           SKY/WX    TMP DP  RH WIND       PRES   REMARKS
BRADLEY INTL   PTSUNNY   83  57  41 W7        30.24F
HARTFORD       SUNNY     81  56  42 SW8       30.24F
DANBURY        SUNNY     80  57  45 VRB5      30.27S
WTRBRY/OXFORD  MOSUNNY   79  59  50 VRB6      30.28F
BRIDGEPORT     SUNNY     77  54  44 SE6       30.26F
MERIDEN        SUNNY     82  57  42 SW9       30.24F
NEW HAVEN      MOSUNNY   76  55  48 S9        30.26F
CHESTER        FAIR      77  55  47 S6        30.28S
GROTON         SUNNY     72  57  59 SE9       30.27S
WILLIMANTIC    MOSUNNY   82  56  40 VRB5      30.25S

 IN RI

CITY           SKY/WX    TMP DP  RH WIND       PRES   REMARKS
PROVIDENCE     MOSUNNY   81  58  45 SE15      30.26S
BLOCK ISLAND   SUNNY     72  55  56 S10       30.29F
WESTERLY       SUNNY     72  56  57 S12       30.28F

 IN MA

CITY           SKY/WX    TMP DP  RH WIND       PRES   REMARKS
BOSTON         MOSUNNY   67  60  78 E9        30.30S
WORCESTER      PTSUNNY   76  56  49 SE6       30.29S
WESTFIELD      MOSUNNY   82  56  40 VRB7      30.24F
PROVINCETOWN   SUNNY     64  55  72 NE9       30.30S
NANTUCKET      SUNNY     70  56  61 SE10      30.28F
$$

ANZ330-335-338-340-345-350-353-355-292000-
COASTAL MARINE OBSERVATIONS


STATION/POSITION TIME  SKY/WX   TEMP    WIND        PRES    VSBY  WAVE
                                AIR SEA DIR/SP/G                  HT/PER
                 (UTC)          (F)     (DEG/KT/KT) (MB)    (MI)  (FT/S)
NY HARB ENTRANCE 1850            65 62  140/  6/  8 1024.9          2/ 8
4S FIRE IS       1803               60                N/A           2/ 8
20S FIRE ISLAND  1850            62 60  110/  8/ 10 1025.0          2/ 8
GREAT SOUTH BAY  1800            66 69  150/ 12/ 12   N/A
23SW MTP         1850            59 58  130/  4/  6 1025.2          3/ 7
HUDSON CANYON    NOT AVBL
KINGS POINT      1800            74 57   20/  6/  8 1024.1
CENTRAL LI SOUND 1800            69 63  190/  4/  4   N/A
EASTERN LI SOUND 1800            62     150/  4/  6   N/A
ROBBINS REEF     1800            68     170/ 17/ 18 1023.9
$$


>>>>>>>>>>>>>>>>>>>>>>>>>>>> KEY <<<<<<<<<<<<<<<<<<<<<<<<<<<
>                                                          <
>     SKY/WX - SKY CONDITION/PRESENT WEATHER               <
>     TMP    - TEMPERATURE IN FAHRENHEIT                   <
>     DP     - DEWPOINT IN FAHRENHEIT                      <
>     RH     - RELATIVE HUMIDITY IN PERCENT                <
>     WIND   - DIRECTION AND SPEED IN MPH                  <
>     PRES   - MEAN SEA LEVEL PRESSURE IN INCHES OF HG     <
>     WCI    - WIND CHILL INDEX                            <
>     VSB    - VISIBILITY IN MILES                         <
>     HX     - HEAT INDEX                                  <
>     TC     - TEMPERATURE IN CELSIUS                      <
>     VRB    - VARIABLE WIND DIRECTION                     <
>                                                          <
>>>>>>>>>>>>>>>>>>>>>>>>>>>> KEY <<<<<<<<<<<<<<<<<<<<<<<<<<<





USA.gov is the U.S. government's official web portal to all federal, state and local government web resources and services.